Regional Weather Roundup
Issued by NWS

Home | Current Version | Previous Version | Graphics & Text | Print | Product List | Glossary On
Versions: 1 2 3 4 5 6 7 8 9 10 11 12 13 14 15 16 17 18 19 20 21 22 23 24 25 26 27 28 29 30 31 32 33 34 35 36 37 38 39 40 41 42 43 44 45 46 47 48 49 50
000
ASUS43 KIND 291009
RWRIN

WEATHER ROUNDUP FOR INDIANA
NATIONAL WEATHER SERVICE INDIANAPOLIS IN
600 AM EDT MON AUG 29 2016

NOTE: "FAIR" INDICATES FEW OR NO CLOUDS BELOW 12,000 FEET WITH NO
SIGNIFICANT WEATHER AND/OR OBSTRUCTIONS TO VISIBILITY.

* - STATION DOES NOT REPORT WEATHER SUCH AS PRECIPITATION OR FOG.

+ - STATION NOT QUALITY CONTROLLED BY THE NATIONAL WEATHER SERVICE.
    USE DATA WITH CAUTION...ESPECIALLY DEWPOINT AND RELATIVE
    HUMIDITY OBSERVATIONS.

INZ001>003-010>013-019-020-291100-
NORTHWEST INDIANA

CITY           SKY/WX    TMP DP  RH WIND       PRES   REMARKS
GARY /AIRPORT/ PTCLDY    70  70 100 CALM      30.20S
KNOX *+          N/A     64  55  72 CALM      30.20S VSB 1
LA PORTE +       N/A    N/A N/A N/A CALM      30.21S FOG
MICHIGAN CITY+ CLEAR     64  64 100 MISG      30.22R FOG
MONTICELLO +   PTCLDY    69  65  87 E6        30.17S
RENSSELAER +   CLEAR     68  68 100 N3        30.19R
VALPARAISO     CLOUDY    67  66  97 NE6       30.20F

$$

LMZ046-743>745-291100-
SOUTHERN LAKE MICHIGAN

STATION/POSITION TIME  TEMP    WIND        PRES    WAVE
                       AIR SEA DIR/SP/G            HT
                 (UTC) (F)     (DEG/KT/KT) (MB)    (FT)
BURNS HARBOR     0905   70      80/  5/  7 1023.0S
MICHIGAN CITY    0900   70      20/  3/  6   N/A
5NW MICH CITY    1000   73 75   50/  6/  8   N/A     1

$$

INZ004-005-014>016-021>024-291100-
NORTH CENTRAL INDIANA

CITY           SKY/WX    TMP DP  RH WIND       PRES   REMARKS
GOSHEN         FOG       65  62  90 CALM      30.22R VSB 1/2
LOGANSPORT +   PTCLDY    68  68 100 CALM      30.19S
PERU/GRISSOM   CLOUDY    68  68 100 NE6       30.18S
ROCHESTER +    CLEAR     70  70 100 NE3       30.20F FOG
SOUTH BEND     CLEAR     66  66 100 NE3       30.22R
WARSAW +       CLEAR     64  64 100 CALM      30.22R FOG

$$

INZ006>009-017-018-025>027-291100-
NORTHEAST INDIANA

CITY           SKY/WX    TMP DP  RH WIND       PRES   REMARKS
ANGOLA *+      CLEAR     66  66 100 NE3       30.23S
AUBURN +       CLEAR     66  63  88 E3        30.23S
FORT WAYNE     PTCLDY    67  65  93 E3        30.22R
HUNTINGTON +   CLEAR     64  63  96 CALM      30.21R

$$

INZ028-029-035-036-043>045-051>053-291100-
WEST CENTRAL INDIANA

CITY           SKY/WX    TMP DP  RH WIND       PRES   REMARKS
CRAWFORDSVL +  PTCLDY    66  66 100 SE3       30.17S FOG
GREENCASTLE +  CLEAR     68  68 100 CALM      30.19R FOG
LAFAYETTE      CLOUDY    70  70 100 NE6       30.16R
TERRE HAUTE    CLEAR     69  67  93 CALM      30.16F

$$

INZ030>032-037>040-046>048-054>057-064-065-291100-
CENTRAL INDIANA

CITY           SKY/WX    TMP DP  RH WIND       PRES   REMARKS
INDIANAPOLIS   PTCLDY    70  68  93 E6        30.17R
-EAGLE CREEK   CLEAR     70  67  90 SE5       30.17S
KOKOMO *+      CLOUDY    68  66  94 E6        30.20R
MARION +       PTCLDY    67  67 100 E5        30.21S
MT COMFORT *+  CLEAR     66  66 100 SE3       30.21R
SHELBYVILLE    CLEAR     69  65  86 CALM      30.19R
ZIONSVILLE +   MOCLDY    67  66  99 E3        30.19S

$$

INZ033-034-041-042-049-050-058-059-291100-
EAST CENTRAL INDIANA

CITY           SKY/WX    TMP DP  RH WIND       PRES   REMARKS
MUNCIE         CLEAR     69  67  93 SE3       30.21S

$$

INZ060-061-067>069-081>083-085>088-291100-
SOUTHWEST INDIANA

CITY           SKY/WX    TMP DP  RH WIND       PRES   REMARKS
EVANSVILLE     PTCLDY    72  69  90 N3        30.15R
HUNTINGBURG *+ CLEAR     70  66  88 N8        30.16R
WASHINGTON +   CLEAR     69  69 100 MISG      30.15S FOG

$$

INZ062-063-066-070>080-084-089>092-291100-
SOUTH CENTRAL AND SOUTHEAST INDIANA

CITY           SKY/WX    TMP DP  RH WIND       PRES   REMARKS
BLOOMINGTON    CLEAR     70  67  90 SE6       30.18S
MADISON *+     CLEAR     68  66  94 NE6       30.21R

$$





USA.gov is the U.S. government's official web portal to all federal, state and local government web resources and services.